Location: Zagreb
(45.8000°N, 16.0000°E)
Time: 18:55:23
(UTC+01:00)

ISS - Visible Passes

Search period start: 09 February 2016 00:00
Search period end: 19 February 2016 00:00
Orbit: 399 x 408 km, 51.6° (Epoch: 09 February)

Date Brightness Start Highest point End Pass type
(mag) Time Alt. Az. Time Alt. Az. Time Alt. Az.
09 Feb -2.4 17:46:03 10° W 17:49:09 41° NNW 17:52:16 10° NE visible
09 Feb -1.3 19:23:15 10° WNW 19:25:08 23° NNW 19:25:08 23° NNW visible
10 Feb -1.9 18:30:27 10° WNW 18:33:20 28° N 18:34:39 21° NE visible
10 Feb 0.2 20:07:13 10° NW 20:07:17 11° NW 20:07:17 11° NW visible
11 Feb -1.8 19:14:33 10° NW 19:16:48 28° NNW 19:16:48 28° NNW visible
12 Feb -2.0 18:21:49 10° WNW 18:24:43 28° N 18:26:20 19° NE visible
12 Feb -0.3 19:58:19 10° WNW 19:58:58 15° NW 19:58:58 15° NW visible
13 Feb -2.6 19:05:41 10° NW 19:08:31 42° N 19:08:31 42° N visible
14 Feb -2.4 18:13:01 10° NW 18:16:01 34° NNE 18:18:07 16° ENE visible
14 Feb -0.8 19:49:26 10° WNW 19:50:45 22° WNW 19:50:45 22° WNW visible
15 Feb -3.5 18:56:44 10° WNW 18:59:59 73° NNE 19:00:24 61° E visible
16 Feb -2.9 18:04:03 10° NW 18:07:13 48° NNE 18:10:07 12° E visible
16 Feb -1.3 19:40:39 10° WNW 19:42:46 28° WSW 19:42:46 28° WSW visible
17 Feb -2.9 18:47:47 10° WNW 18:50:59 57° SSW 18:52:36 25° SE visible
18 Feb -3.4 17:55:01 10° WNW 17:58:17 84° NNE 18:01:32 10° ESE visible
18 Feb -0.8 19:32:18 10° W 19:34:21 16° SW 19:35:14 14° SSW visible
